Location: Kailua
(21.4020°N, 157.7390°W)
Time: 17:41:18
(UTC-10:00)

Cosmos 2297 Rocket - Visible Passes

Search period start: 20 October 2014 00:00
Search period end: 30 October 2014 00:00
Orbit: 839 x 845 km, 71.0° (Epoch: 20 October)

Date Brightness Start Highest point End Pass type
(mag) Time Alt. Az. Time Alt. Az. Time Alt. Az.
20 Oct 2.1 05:31:08 10° SSW 05:36:45 76° WNW 05:42:23 10° NNE visible
21 Oct 2.1 05:16:07 10° SSW 05:21:44 81° WNW 05:27:23 10° NNE visible
22 Oct 2.1 05:01:06 10° SSW 05:06:44 86° WNW 05:12:23 10° NNE visible
23 Oct 2.1 04:46:06 10° SSW 04:51:43 88° ESE 04:57:22 10° NNE visible
24 Oct 2.1 04:34:57 46° S 04:36:43 83° ESE 04:42:21 10° NNE visible
25 Oct 2.5 04:22:51 57° NE 04:22:51 57° NE 04:27:20 10° NNE visible
26 Oct 3.8 04:10:00 26° NNE 04:10:00 26° NNE 04:12:19 10° NNE visible
27 Oct 4.6 03:56:43 13° NNE 03:56:43 13° NNE 03:57:17 10° NNE visible
